Regional Weather Roundup
Issued by NWS

Home | Current Version | Previous Version | Text Only | Print | Product List | Glossary Off
Versions: 1 2 3 4 5 6 7 8 9 10 11 12 13 14 15 16 17 18 19 20 21 22 23 24 25 26 27 28 29 30 31 32 33 34 35 36 37 38 39 40 41 42 43 44 45 46 47 48 49 50

000
ASUS45 KPSR 231000
RWRAZ

PRELIMINARY ARIZONA REGIONAL HOURLY WEATHER ROUNDUP
NATIONAL WEATHER SERVICE PHOENIX AZ
300 AM MST TUE SEP 23 2014

NOTE: FAIR INDICATES FEW OR NO CLOUDS BELOW 12,000 FEET WITH NO
SIGNIFICANT WEATHER AND/OR OBSTRUCTIONS TO VISIBILITY.

AZZ001>003-036-231100-
NORTHWEST ARIZONA

CITY           SKY/WX    TMP DP  RH WIND       PRES   REMARKS
KINGMAN        CLEAR     59  35  40 S3        30.09F
$$

AZZ004>008-015-016-018-231100-
NORTH CENTRAL ARIZONA

CITY           SKY/WX    TMP DP  RH WIND       PRES   REMARKS
GRAND CANYON   CLEAR     40  37  89 CALM      30.31S
PRESCOTT       CLEAR     56  38  50 S9        30.20F
FLAGSTAFF      CLEAR     45  41  86 SW3       30.32F
PAYSON         PTCLDY    63  55  77 CALM      30.22S
PAGE           CLEAR     68  43  40 SW5       30.13S
$$

AZZ009>014-017-231100-
NORTHEAST ARIZONA

CITY           SKY/WX    TMP DP  RH WIND       PRES   REMARKS
WINSLOW        NOT AVBL
SAINT JOHNS    PTCLDY    61  58  90 S3        30.24S
WINDOW ROCK    PTCLDY    53  48  83 CALM      30.31
$$

AZZ023-231100-
GREATER PHOENIX AREA

CITY           SKY/WX    TMP DP  RH WIND       PRES   REMARKS
PHOENIX        CLEAR     81  58  45 CALM      29.90S
LUKE AFB       CLEAR     75  51  42 NW5       29.90F
DEER VALLEY    CLEAR     78  48  34 NE8       29.92F
SCOTTSDALE     CLEAR     78  54  43 CALM      29.94F
$$

AZZ027-028-231100-
SOUTHWEST MARICOPA COUNTY AND PINAL COUNTY

CITY           SKY/WX    TMP DP  RH WIND       PRES   REMARKS
CASA GRANDE    CLEAR     73  52  46 CALM      29.94S
$$

AZZ503-504-507>509-231100-
SOUTHEAST ARIZONA

CITY           SKY/WX    TMP DP  RH WIND       PRES   REMARKS
TUCSON         CLEAR     78  61  55 CALM      30.03F
DAVIS-MONTHAN  CLEAR     77  62  60 CALM      30.01F
NOGALES        CLEAR     68  63  84 E3        30.09F
SIERRA VISTA   CLEAR     66  63  88 S3        30.16F
SAFFORD        PTCLDY    73  64  73 E8        30.08F
$$

AZZ020-021-025-026-031-231100-
SOUTHWEST ARIZONA

CITY           SKY/WX    TMP DP  RH WIND       PRES   REMARKS
YUMA           CLEAR     83  64  52 CALM      29.85F
$$

CAZ031-033-041-043-047-048-061-231100-
SOUTHERN CALIFORNIA

CITY           SKY/WX    TMP DP  RH WIND       PRES   REMARKS
DOWNTOWN L.A.  CLEAR     66  61  84 CALM      29.94F
L.A. AIRPORT   PTCLDY    65  61  86 CALM      29.95S
SAN DIEGO      CLOUDY    69  63  81 NE6       29.96F
BURBANK        CLEAR     65  55  70 CALM      29.95F
ONTARIO        CLEAR     67  57  70 CALM      29.96F
RIVERSIDE      CLEAR     66  60  81 CALM      29.97S
PALM SPRINGS   CLEAR     80  45  28 N8        29.90S
EL CENTRO NAS  CLEAR     78  60  53 SE3       29.84S
IMPERIAL       CLEAR     82  63  52 E3        29.83F
BLYTHE         CLEAR     82  56  40 CALM      29.87F
$$

NVZ020-UTZ003-231100-
SOUTHERN NEVADA-UTAH

CITY           SKY/WX    TMP DP  RH WIND       PRES   REMARKS
LAS VEGAS      NOT AVBL
SALT LAKE CITY PTCLDY    62  53  72 SE6       30.11S
$$

NMZ009-TXZ055-231100-
NEW MEXICO-WEST TEXAS

CITY           SKY/WX    TMP DP  RH WIND       PRES   REMARKS
ALBUQUERQUE    PTCLDY    61  56  83 SE7       30.25F
EL PASO        CLOUDY    69  63  81 N3        30.17F
$$


........................KEY........................
SKY/WX - SKY CONDITION/WEATHER
TMP    - TEMPERATURE IN FAHRENHEIT
DP     - DEW POINT IN FAHRENHEIT
RH     - RELATIVE HUMIDITY IN PERCENT
WIND   - DIRECTION AND SPEED IN MILES PER HOUR (MPH)
VRB    - VARIABLE WIND DIRECTION
PRES   - MEAN SEA LEVEL PRESSURE IN INCHES OF MERCURY
         F - FALLING PRESSURE   R - RISING PRESSURE
         S - STEADY PRESSURE
VSB    - VISIBILITY IN MILES
HX     - HEAT INDEX IN FAHRENHEIT
WCI    - WIND CHILL INDEX IN FAHRENHEIT
TC     - TEMPERATURE IN CELSIUS WHICH IS ALSO KNOWN AS
         TEMPERATURE IN CENTIGRADE
AFB    - AIR FORCE BASE
         LUKE AFB IS LUKE AIR FORCE BASE
         DAVIS-MONTHAN IS DAVIS-MONTHAN AIR FORCE BASE
NAS    - NAVAL AIR STATION
         EL CENTRO NAS IS EL CENTRO NAVAL AIR STATION
N/A    - NOT AVAILABLE



USA.gov is the U.S. government's official web portal to all federal, state and local government web resources and services.